KC3LDA Weather Reports


time (UTC)temp
C
wind
direction
speed
KPH
gust
KPH
rain 1hr
cm
rain 24hr
cm
rain mn
cm
humidity
%
barometer
mb
20260506044619 13 220 27.4 43.5 0.00 0.00 0.00 92 1008.3
20260506044116 13 206 12.9 38.6 0.00 0.00 0.00 92 1008.3
20260506043613 13 191 17.7 43.5 0.00 0.00 0.00 92 1008.1
20260506043111 13 187 8.0 32.2 0.00 0.00 0.00 93 1008.2
20260506042610 13 194 24.1 33.8 0.00 0.00 0.00 92 1008.5
20260506042107 13 227 17.7 30.6 0.00 0.00 0.00 93 1008.2
20260506041606 13 207 8.0 35.4 0.00 0.00 0.00 92 1008.3
20260506041102 13 190 24.1 35.4 0.00 0.00 0.00 92 1008.5
20260506040600 13 187 19.3 37.0 0.00 0.00 0.00 92 1008.4
20260506040056 13 189 14.5 37.0 0.00 0.00 0.00 92 1008.4
20260506035553 13 215 11.3 37.0 0.00 0.00 0.00 91 1008.5
20260506035050 13 188 17.7 37.0 0.00 0.00 0.00 91 1008.5
20260506034547 13 197 14.5 40.2 0.00 0.00 0.00 91 1008.2
20260506034044 13 190 30.6 45.1 0.00 0.00 0.00 91 1008.2
20260506033541 13 178 16.1 41.8 0.00 0.00 0.00 91 1008.2
20260506033038 13 174 8.0 41.8 0.00 0.00 0.00 90 1008.1
20260506032536 13 190 17.7 35.4 0.00 0.00 0.00 90 1008.2
20260506032032 13 187 14.5 51.5 0.00 0.00 0.00 90 1008.1
20260506031530 13 211 32.2 45.1 0.00 0.00 0.00 90 1008.4
20260506031027 13 218 16.1 32.2 0.00 0.00 0.00 90 1008.1
20260506030525 13 174 16.1 56.3 0.00 0.00 0.00 90 1008.1
20260506030022 13 188 16.1 35.4 0.00 0.00 0.00 90 1008.2
20260506025519 14 199 14.5 35.4 0.00 0.00 0.00 90 1008.3
20260506025015 14 213 25.7 30.6 0.00 0.00 0.00 90 1008.2
20260506024512 14 203 16.1 33.8 0.00 0.00 0.00 91 1008.5
20260506024008 13 201 8.0 38.6 0.00 0.00 0.00 91 1008.5
20260506023504 14 208 12.9 40.2 0.00 0.00 0.00 91 1008.4
20260506023001 14 196 9.7 30.6 0.00 0.00 0.00 90 1008.4
20260506022459 14 196 16.1 35.4 0.00 0.00 0.00 90 1008.5
20260506021956 14 189 14.5 37.0 0.00 0.00 0.00 90 1008.3
20260506021454 14 206 30.6 35.4 0.00 0.00 0.00 90 1008.5
20260506020951 14 141 16.1 35.4 0.00 0.00 0.00 90 1008.5
20260506020448 14 209 24.1 40.2 0.00 0.00 0.00 90 1008.4
20260506015945 14 215 9.7 30.6 0.00 0.00 0.00 90 1008.4
20260506015443 14 214 8.0 35.4 0.00 0.00 0.00 89 1008.3
20260506014940 14 200 11.3 35.4 0.00 0.00 0.00 89 1008.3
20260506014437 14 216 14.5 37.0 0.00 0.00 0.00 89 1008.2
20260506013933 14 198 17.7 38.6 0.00 0.00 0.00 89 1008.0
20260506013431 14 191 20.9 29.0 0.00 0.00 0.00 88 1008.1
20260506012927 14 205 20.9 38.6 0.00 0.00 0.00 88 1008.1
20260506012424 14 212 27.4 38.6 0.00 0.00 0.00 88 1008.0
20260506011921 14 206 9.7 29.0 0.00 0.00 0.00 89 1008.1
20260506011418 14 207 12.9 33.8 0.00 0.00 0.00 89 1008.1
20260506010915 14 180 20.9 51.5 0.00 0.00 0.00 88 1008.1
20260506010414 14 170 8.0 38.6 0.00 0.00 0.00 87 1008.1
20260506005909 15 200 19.3 35.4 0.00 0.00 0.00 87 1007.9
20260506005408 15 223 17.7 46.7 0.00 0.00 0.00 87 1007.8
20260506004902 15 187 14.5 38.6 0.00 0.00 0.00 86 1007.7
20260506004401 15 196 22.5 41.8 0.00 0.00 0.00 87 1007.9
20260506003856 15 211 19.3 45.1 0.00 0.00 0.00 86 1007.6
20260506003353 15 203 14.5 32.2 0.00 0.00 0.00 86 1007.5
20260506002849 15 211 27.4 35.4 0.00 0.00 0.00 86 1007.7
20260506002345 15 193 14.5 35.4 0.00 0.00 0.00 85 1007.3
20260506001841 15 214 22.5 48.3 0.00 0.00 0.00 83 1007.4
20260506001338 15 190 45.1 45.1 0.00 0.00 0.00 83 1007.3
20260506000835 15 208 6.4 43.5 0.00 0.00 0.00 84 1007.4
20260506000333 15 211 11.3 41.8 0.00 0.00 0.00 85 1007.1
20260505235830 15 190 19.3 41.8 0.00 0.00 0.00 86 1007.0
20260505235327 15 204 17.7 38.6 0.00 0.00 0.00 86 1007.1
20260505234824 15 167 20.9 37.0 0.00 0.00 0.00 85 1007.0
20260505234322 15 186 16.1 37.0 0.00 0.00 0.00 86 1007.1
20260505233819 15 183 14.5 38.6 0.00 0.00 0.00 85 1006.6
20260505233317 15 209 22.5 40.2 0.00 0.00 0.00 85 1006.5
20260505232813 15 190 19.3 57.9 0.00 0.00 0.00 85 1006.6
20260505232311 15 188 46.7 53.1 0.00 0.00 0.00 85 1006.4
20260505231808 15 199 17.7 37.0 0.00 0.00 0.00 86 1006.5
20260505231306 15 197 33.8 37.0 0.00 0.00 0.00 86 1006.6
20260505230804 15 196 12.9 46.7 0.00 0.00 0.00 86 1006.5
20260505230300 15 182 16.1 37.0 0.00 0.00 0.00 85 1006.4
20260505225757 15 191 27.4 49.9 0.00 0.00 0.00 85 1006.4
20260505225254 15 167 8.0 43.5 0.00 0.00 0.00 85 1006.4
20260505224749 15 201 19.3 38.6 0.00 0.00 0.00 85 1006.5
20260505224247 15 180 16.1 41.8 0.00 0.00 0.00 85 1006.2
20260505223744 15 200 17.7 48.3 0.00 0.00 0.00 85 1006.2
20260505223241 15 180 27.4 46.7 0.00 0.00 0.00 85 1006.1
20260505222737 15 208 22.5 41.8 0.00 0.00 0.00 85 1005.9
20260505222233 15 191 17.7 38.6 0.00 0.00 0.00 86 1006.3
20260505221730 15 189 16.1 45.1 0.00 0.00 0.00 85 1006.3
20260505221227 15 198 9.7 54.7 0.00 0.00 0.00 84 1006.2
20260505220724 15 180 24.1 40.2 0.00 0.00 0.00 84 1006.1
20260505220221 15 192 11.3 46.7 0.00 0.00 0.00 84 1005.8
20260505215720 15 202 11.3 41.8 0.00 0.00 0.00 83 1006.2
20260505215217 16 187 16.1 41.8 0.00 0.00 0.00 84 1006.0
20260505214714 15 197 24.1 51.5 0.00 0.00 0.00 83 1006.0
20260505214212 16 184 8.0 43.5 0.00 0.00 0.00 83 1006.3
20260505213709 16 200 24.1 43.5 0.00 0.00 0.00 83 1006.1
20260505213206 16 167 9.7 40.2 0.00 0.00 0.00 83 1005.8
20260505212702 16 216 9.7 41.8 0.00 0.00 0.00 83 1005.8
20260505212159 16 201 27.4 46.7 0.00 0.00 0.00 84 1005.5
20260505211656 16 192 12.9 37.0 0.00 0.00 0.00 83 1005.8
20260505211153 16 210 24.1 43.5 0.00 0.00 0.00 83 1006.0
20260505210650 16 207 20.9 37.0 0.00 0.00 0.00 84 1005.6
20260505210147 15 202 20.9 45.1 0.00 0.00 0.00 84 1005.6
20260505205644 15 208 19.3 48.3 0.00 0.00 0.00 84 1005.9
20260505205142 16 198 16.1 30.6 0.00 0.00 0.00 83 1005.5
20260505204639 15 203 25.7 40.2 0.00 0.00 0.00 84 1005.8
20260505204137 16 207 12.9 41.8 0.00 0.00 0.00 84 1005.5
20260505203633 15 201 27.4 41.8 0.00 0.00 0.00 84 1005.6
20260505203130 16 198 11.3 33.8 0.00 0.00 0.00 84 1005.8
20260505202626 16 198 11.3 48.3 0.00 0.00 0.00 84 1005.6
20260505202122 16 190 14.5 38.6 0.00 0.00 0.00 84 1005.8
20260505201619 15 208 22.5 41.8 0.00 0.00 0.00 84 1005.8
20260505201117 16 204 14.5 45.1 0.00 0.00 0.00 84 1005.9
20260505200614 16 193 27.4 48.3 0.00 0.00 0.00 85 1005.8
20260505200111 16 211 17.7 38.6 0.00 0.00 0.00 85 1005.8
20260505195608 16 190 37.0 38.6 0.00 0.00 0.00 84 1006.0
20260505195105 15 190 11.3 38.6 0.00 0.00 0.00 85 1006.2
20260505194602 16 202 19.3 38.6 0.00 0.00 0.00 84 1006.1
20260505194058 15 200 12.9 43.5 0.00 0.00 0.00 85 1006.1
20260505193555 16 218 8.0 35.4 0.00 0.00 0.00 85 1006.3
20260505193052 16 192 9.7 25.7 0.00 0.00 0.00 84 1006.3
20260505192551 16 199 12.9 27.4 0.00 0.00 0.00 84 1006.5
20260505192048 16 180 16.1 37.0 0.00 0.00 0.00 85 1006.5
20260505191546 16 211 19.3 37.0 0.00 0.00 0.00 84 1006.8
20260505191044 16 192 14.5 35.4 0.00 0.00 0.00 85 1006.7
20260505190543 16 214 14.5 33.8 0.00 0.00 0.00 85 1006.9
20260505190040 16 200 17.7 29.0 0.00 0.00 0.00 84 1006.9
20260505185537 16 188 16.1 33.8 0.00 0.00 0.00 85 1007.2
20260505185033 16 219 8.0 40.2 0.00 0.00 0.00 86 1007.2
20260505184530 16 167 19.3 30.6 0.00 0.00 0.00 85 1007.2
20260505184027 16 190 8.0 29.0 0.00 0.00 0.00 84 1007.3
20260505183524 16 190 14.5 27.4 0.00 0.00 0.00 85 1007.5
20260505183021 16 193 12.9 27.4 0.00 0.00 0.00 85 1007.7
20260505182517 16 224 14.5 27.4 0.00 0.00 0.00 85 1007.5
20260505182014 16 211 16.1 22.5 0.00 0.00 0.00 85 1007.8
20260505181511 16 227 12.9 19.3 0.00 0.00 0.00 84 1007.7
20260505181008 15 194 11.3 27.4 0.00 0.00 0.00 86 1007.7
20260505180504 16 227 4.8 24.1 0.00 0.00 0.00 85 1008.0
20260505180001 16 211 11.3 20.9 0.00 0.00 0.00 86 1007.9
20260505175457 16 176 11.3 20.9 0.00 0.00 0.00 86 1007.9
20260505174954 15 193 6.4 20.9 0.00 0.00 0.00 86 1008.1
20260505174451 16 186 6.4 17.7 0.00 0.00 0.00 85 1008.3
20260505173947 16 171 6.4 24.1 0.00 0.00 0.00 86 1008.4
20260505173443 16 189 6.4 17.7 0.00 0.00 0.00 85 1008.4
20260505172941 16 187 8.0 20.9 0.00 0.00 0.00 85 1008.1
20260505172439 16 180 9.7 17.7 0.00 0.00 0.00 85 1008.1
20260505171938 16 179 9.7 16.1 0.00 0.00 0.00 86 1008.0
20260505171435 15 189 14.5 17.7 0.00 0.00 0.00 87 1008.4
20260505170932 15 210 16.1 24.1 0.00 0.00 0.00 87 1008.3
20260505170428 15 184 8.0 19.3 0.00 0.00 0.00 87 1008.3
20260505165924 15 194 11.3 24.1 0.00 0.00 0.00 87 1008.3
20260505165420 15 179 6.4 22.5 0.00 0.00 0.00 88 1008.6
20260505164915 15 161 8.0 29.0 0.00 0.00 0.00 87 1008.6
20260505164413 15 168 11.3 27.4 0.00 0.00 0.00 87 1008.5
20260505163911 16 185 8.0 17.7 0.00 0.00 0.00 86 1008.7
20260505163409 16 207 11.3 17.7 0.00 0.00 0.00 86 1008.5
20260505162908 15 191 12.9 20.9 0.00 0.00 0.00 86 1008.4
20260505162403 15 167 9.7 22.5 0.00 0.00 0.00 86 1008.6
20260505161900 15 205 14.5 27.4 0.00 0.00 0.00 86 1008.5
20260505161357 16 192 4.8 16.1 0.00 0.00 0.00 86 1008.7
20260505160854 16 196 9.7 25.7 0.00 0.00 0.00 86 1008.4
20260505160352 16 193 8.0 19.3 0.00 0.00 0.00 86 1008.7
20260505153331 16 218 6.4 19.3 0.00 0.00 0.00 87 1008.9
20260505152828 16 180 8.0 16.1 0.00 0.00 0.00 86 1008.8
20260505152325 16 171 8.0 19.3 0.00 0.00 0.00 86 1008.8
20260505151820 15 180 12.9 17.7 0.00 0.00 0.00 87 1008.9
20260505151317 15 184 9.7 20.9 0.00 0.00 0.00 88 1008.9
20260505150814 15 205 12.9 19.3 0.00 0.00 0.00 87 1009.1
20260505150311 15 208 9.7 20.9 0.00 0.00 0.00 88 1009.3
20260505140241 15 204 19.3 22.5 0.00 0.00 0.00 90 1008.9
20260505130205 13 161 6.4 16.1 0.00 0.00 0.00 93 1008.8
20260505124654 13 202 9.7 22.5 0.00 0.00 0.00 93 1008.8
20260505124151 13 210 3.2 17.7 0.00 0.00 0.00 93 1008.7
20260505123647 13 189 9.7 17.7 0.00 0.00 0.00 94 1008.6
20260505123144 13 162 11.3 16.1 0.00 0.00 0.00 94 1008.7
20260505122640 13 218 11.3 17.7 0.00 0.00 0.00 94 1008.6
20260505122138 13 179 8.0 12.9 0.00 0.00 0.00 95 1008.6
20260505121634 13 172 11.3 11.3 0.00 0.00 0.00 94 1008.6
20260505121131 13 184 4.8 9.7 0.00 0.00 0.00 95 1008.7
20260505120628 13 178 4.8 12.9 0.00 0.00 0.00 95 1009.0
20260505120124 13 165 8.0 11.3 0.00 0.00 0.00 94 1008.7
20260505115623 13 180 8.0 12.9 0.00 0.00 0.00 94 1008.7
20260505115121 13 193 4.8 9.7 0.00 0.00 0.00 94 1008.9
20260505114618 13 182 3.2 11.3 0.00 0.00 0.00 96 1008.7
20260505114114 12 204 1.6 9.7 0.00 0.00 0.00 96 1008.8
20260505113611 12 147 1.6 9.7 0.00 0.00 0.00 96 1009.0
20260505113108 12 187 4.8 9.7 0.00 0.00 0.00 96 1009.0
20260505112604 12 195 6.4 11.3 0.00 0.00 0.00 96 1009.1
20260505112103 12 193 6.4 11.3 0.00 0.00 0.00 96 1008.9
20260505111601 12 160 6.4 12.9 0.00 0.00 0.00 95 1008.7
20260505111058 12 159 6.4 9.7 0.00 0.00 0.00 96 1008.9
20260505110554 12 226 3.2 8.0 0.00 0.00 0.00 96 1009.1
20260505102027 11 175 3.2 11.3 0.00 0.00 0.00 99 1008.1
20260505101526 11 202 4.8 14.5 0.00 0.00 0.00 99 1008.0
20260505101021 11 209 4.8 11.3 0.00 0.00 0.00 99 1008.1
20260505100519 11 186 6.4 12.9 0.00 0.00 0.00 99 1008.1
20260505100016 11 187 4.8 16.1 0.00 0.00 0.00 99 1007.6
20260505095511 11 201 4.8 11.3 0.00 0.00 0.00 99 1007.8
20260505095008 11 145 16.1 16.1 0.00 0.00 0.00 99 1008.1
20260505094504 11 186 3.2 12.9 0.00 0.00 0.00 99 1007.7
20260505094001 11 173 4.8 8.0 0.00 0.00 0.00 99 1007.7
20260505093457 11 157 0.0 9.7 0.00 0.00 0.00 99 1007.9
20260505092955 11 195 3.2 8.0 0.00 0.00 0.00 99 1007.5
20260505092452 11 151 0.0 8.0 0.00 0.00 0.00 99 1008.0
20260505091949 11 174 3.2 11.3 0.00 0.00 0.00 99 1007.8
20260505091447 11 207 3.2 8.0 0.00 0.00 0.00 99 1007.7
20260505090945 11 201 3.2 9.7 0.00 0.00 0.00 99 1007.7
20260505090443 11 201 3.2 9.7 0.00 0.00 0.00 98 1007.7
20260505085940 11 148 1.6 9.7 0.00 0.00 0.00 99 1007.8
20260505085438 11 194 3.2 6.4 0.00 0.00 0.00 98 1007.6
20260505084936 11 198 1.6 6.4 0.00 0.00 0.00 98 1007.8
20260505084434 11 198 6.4 8.0 0.00 0.00 0.00 98 1007.7
20260505083931 11 187 3.2 11.3 0.00 0.00 0.00 98 1007.6
20260505083428 11 168 3.2 8.0 0.00 0.00 0.00 98 1007.6
20260505082925 11 193 4.8 11.3 0.00 0.00 0.00 98 1007.7
20260505082420 11 199 4.8 16.1 0.00 0.00 0.00 98 1007.8
20260505081918 11 181 3.2 14.5 0.00 0.00 0.00 98 1007.7
20260505081415 11 183 4.8 12.9 0.00 0.00 0.00 98 1007.9
20260505080911 11 193 6.4 14.5 0.00 0.00 0.00 97 1007.9
20260505080407 11 153 3.2 11.3 0.00 0.00 0.00 97 1008.0
20260505075903 11 194 6.4 17.7 0.00 0.00 0.00 97 1007.8
20260505075359 11 199 4.8 14.5 0.00 0.00 0.00 97 1007.8
20260505074857 11 226 6.4 11.3 0.00 0.00 0.00 97 1007.9
20260505074354 11 195 6.4 11.3 0.00 0.00 0.00 97 1007.8
20260505073851 11 186 4.8 12.9 0.00 0.00 0.00 97 1007.6
20260505073349 11 196 4.8 12.9 0.00 0.00 0.00 97 1007.6
20260505072846 11 191 4.8 11.3 0.00 0.00 0.00 97 1007.8
20260505072342 11 195 4.8 11.3 0.00 0.00 0.00 96 1007.6
20260505071838 11 128 1.6 8.0 0.00 0.00 0.00 96 1007.8
20260505071335 11 201 6.4 9.7 0.00 0.00 0.00 96 1007.9
20260505070833 11 189 6.4 11.3 0.00 0.00 0.00 96 1007.6
20260505070329 11 224 6.4 14.5 0.00 0.00 0.00 96 1007.9
20260505065824 11 161 3.2 14.5 0.00 0.00 0.00 96 1007.8
20260505065321 11 176 4.8 8.0 0.00 0.00 0.00 96 1008.0
20260505064819 11 202 1.6 12.9 0.00 0.00 0.00 95 1007.9
20260505064316 11 164 4.8 16.1 0.00 0.00 0.00 96 1007.8
20260505063814 11 203 6.4 19.3 0.00 0.00 0.00 96 1007.6
20260505063309 11 205 9.7 12.9 0.00 0.00 0.00 96 1007.8
20260505062806 11 198 9.7 14.5 0.00 0.00 0.00 95 1008.0
20260505062304 11 155 8.0 20.9 0.00 0.00 0.00 95 1007.9
20260505061800 11 198 8.0 17.7 0.00 0.00 0.00 95 1007.9
20260505061258 11 158 8.0 17.7 0.00 0.00 0.00 96 1008.1
20260505060755 11 212 6.4 14.5 0.00 0.00 0.00 95 1008.1
20260505060252 11 168 4.8 11.3 0.00 0.00 0.00 95 1008.1
20260505055748 11 200 4.8 14.5 0.00 0.00 0.00 95 1008.1
20260505055244 11 202 8.0 11.3 0.00 0.00 0.00 95 1008.2
20260505054742 11 187 8.0 17.7 0.00 0.00 0.00 95 1007.9
20260505054239 11 205 4.8 12.9 0.00 0.00 0.00 95 1008.3
20260505053738 11 212 3.2 11.3 0.00 0.00 0.00 95 1008.3
20260505053234 11 206 1.6 6.4 0.00 0.00 0.00 95 1008.2
20260505052731 11 158 3.2 8.0 0.00 0.00 0.00 95 1008.3
20260505052228 11 211 6.4 9.7 0.00 0.00 0.00 96 1008.5
20260505051725 11 228 12.9 12.9 0.00 0.00 0.00 96 1008.2
20260505051223 11 192 4.8 16.1 0.00 0.00 0.00 95 1008.5
20260505050720 11 216 8.0 16.1 0.00 0.00 0.00 95 1008.4
20260505050219 11 216 4.8 9.7 0.00 0.00 0.00 95 1008.1